CZ-2D DEB, 44610

Orbit data source: Space-Track

CZ-2D DEB, 44610 is space debris in SSO originally from a launch on Mon, 09 Oct 2017 UTC launched from the Jiuquan Satellite Launch Center, China (JSC). Debris objects in space refer to the collection of defunct objects orbiting the Earth. Examples of debris include non-operational satellites, rocket bodies, and fragments generated from explosions, collisions, or faulty payload assembly.

Loading next visibility...
Identifier
44610, 2017-060C
Orbit
SSO
Last TLE update
19 hours ago
Origin
Manufacturer
Unknown
Mission
Spacecraft
Bus & Motor
Unknown
Mass
Unknown
Launch date (UTC)
2017-10-09 (8 years ago)
Launch vehicle
Unknown
Launch site
Jiuquan Satellite Launch Center, China (JSC)
Object type
Payload
Rocket body
Debris
Shape & HBR
Unknown
Radar Cross Section
Small (<0.1 m²)

Expand to show TLE details & history

TLE from 19 hours ago
0 CZ-2D DEB
1 44610U 17060C   25129.44730352  .00008415  00000-0  64584-3 0  9994
2 44610  98.2411 303.5653 0020211   9.0580 351.1003 15.01902638408500
Epoch: 2025-05-09T10:44Z
Definitive object data (Epoch: 2025-05-09T10:44:07.024Z)
Latitude
-0.00005°
Longitude
-84.96727°
Altitude
550.212 km
Speed
7.594 km/s
True Right ascension
20h 14m 15s
True Declination
0° 00' 00"
Sunlit
Object was in daylight at TLE epoch
Visualization TLE readout
Latitude
31.56888°
Longitude
-89.19009°
Altitude
552.431 km
Speed
7.595 km/s
Apparent Right ascension
22h 43m 42s
Apparent Declination
-3° 35' 35"
Sunlit
Object is in daylight
Visualization observer readout
Local Sidereal Time
14:16:30
Azimuth
67.223° ENE
Elevation
-29.918°
Doppler factor
1
Orbital elements
Apogee altitude
572.076 km
Perigee altitude
544.038 km
Semi-major axis
6,936.194 km
Eccentricity
0.0020211
Inclination
98.2411°
RAAN
303.5653°
Arg. of periapsis
9.058°
True anomaly
351.06438°
Mean anomaly
351.1003°
Eccentric anomaly
351.08235°
Mean motion
3.75717 °/min
BSTAR
0.00064584
Orbital period
95.82 mins
Loading maneuver chart data...
Loading SW <> Apogee altitude chart data...
Loading historical data...
Loading historical data...
Loading historical data...
Loading historical data...
Loading historical data...
Loading historical data...
Loading historical data...
Other satellites on launch #60 in the year 2017 (2017-10-09 UTC)

CZ-2D DEB Visibility forecast

Observer location: undefined°, undefined°

Span
Click to sort rows by Start time (UTC) header in descending order
Start Az.
Max El. time (UTC)
Max El. Az.
Max El.
End time (UTC)
End Az.
6 mins2025-05-10 10:51:47.207Z122.027° SE2025-05-10 10:54:47.207Z61.685° ENE24.079°2025-05-10 10:57:47.207Z11.864° NNE
4 mins2025-05-10 12:27:47.207Z233.195° WSW2025-05-10 12:29:47.207Z273.944° WNW19.014°2025-05-10 12:31:47.207Z308.095° NW
6 mins2025-05-11 00:05:47.207Z38.348° NE2025-05-11 00:07:47.207Z88.694° E34.373°2025-05-11 00:11:47.207Z172.14° S
|